Terminal Aerodrome Forecast
Issued by NWS

Home | Current Version | Previous Version | Text Only | Print | Product List | Glossary On
Versions: 1 2 3 4 5 6 7 8 9 10 11 12 13 14 15 16 17 18 19 20 21 22 23 24 25 26 27 28 29 30 31 32 33 34
000
FTUS43 KDDC 041720
TAFGCK
TAF
KGCK 041720Z 0418/0518 03014KT P6SM OVC020
     FM042100 01011KT P6SM BKN050
     FM050000 02007KT P6SM BKN100
     FM051200 24008KT P6SM SKC=

USA.gov is the U.S. government's official web portal to all federal, state and local government web resources and services.